Wind_Speed
34 28 31 27 19 15 15 13 20 17 18 17 23 20 20 23 22 19 21 20 24 26 22 21 22 21 18 17 11 10 11 11 12 11 17 16 16 18 15 15 13 10 9 9
37 37 35 34 34 29 19 20 23 15 19 21 21 24 24 24 20 19 17 18 21 23 20 29 24 26 27 20 14 12 12 15 17 19 21 22 13 14 13 6 11 12 9 7
45 43 40 41 40 38 34 33 27 23 22 24 26 23 26 27 16 18 22 25 31 30 24 19 23 27 30 26 18 19 19 17 19 23 23 16 14 14 10 4 8 12 14 16
44 43 38 41 44 45 44 41 39 34 31 33 36 27 27 25 24 25 29 31 28 28 29 27 28 34 36 30 28 21 23 21 20 25 20 17 21 19 11 9 8 14 15 17
52 55 53 49 47 47 47 49 51 49 47 41 39 36 31 26 28 30 34 33 38 35 31 32 32 38 32 33 36 31 20 23 24 24 13 19 23 15 17 18 19 18 22 20
62 62 63 61 59 59 52 50 51 55 57 56 55 49 50 47 42 29 29 37 38 36 34 39 36 37 38 40 36 40 37 33 33 26 27 27 26 25 21 25 27 29 31 34
60 64 64 65 65 66 64 64 65 63 63 62 58 56 54 52 52 45 47 45 40 40 42 41 47 46 44 47 52 49 48 48 45 30 32 32 33 29 31 35 39 38 38 41
58 60 64 66 66 68 68 70 69 72 75 75 70 66 63 62 62 62 61 60 59 58 53 53 50 52 59 58 52 51 49 45 34 38 43 38 40 36 38 45 46 46 44 43
60 61 64 65 65 64 71 70 74 73 74 77 79 79 76 71 72 71 68 67 67 69 66 60 56 51 55 58 56 57 63 50 51 49 46 49 49 47 58 59 56 56 57 58
63 62 68 70 68 68 68 70 73 73 74 78 84 80 81 79 78 77 74 73 74 74 69 66 58 56 58 66 67 73 66 56 61 61 59 53 57 56 60 60 58 61 62 65
51 53 61 64 69 71 74 74 76 78 76 78 83 83 75 74 73 77 75 66 67 74 76 76 73 70 71 71 68 67 68 61 56 58 54 52 52 57 56 64 66 66 68 67
52 52 53 60 61 65 67 70 72 76 81 85 86 88 78 76 71 67 57 54 65 74 61 53 58 70 71 74 74 76 65 65 64 53 47 51 54 61 62 65 69 74 78 78
59 59 60 62 70 72 70 70 70 72 71 74 80 85 79 77 79 70 54 52 50 58 51 48 52 62 70 65 70 78 67 65 69 71 75 72 67 70 69 73 76 78 81 81
63 63 64 67 70 79 80 80 78 76 76 74 78 81 78 74 67 66 64 75 71 64 68 74 71 71 78 72 68 76 78 81 82 84 84 87 86 86 83 82 84 83 83 82
67 67 68 71 74 76 82 83 85 83 82 82 80 78 76 76 75 77 78 78 86 89 86 92 90 86 85 89 87 85 87 87 85 86 87 88 83 80 82 84 85 90 88 89
64 67 69 73 75 77 81 84 84 80 80 82 82 78 76 75 75 79 80 83 89 91 94 96 101 105 105 104 106 106 103 99 97 97 99 98 97 99 98 98 97 95 97 97
69 71 74 75 78 80 86 89 86 83 84 83 83 81 80 82 84 83 84 87 89 92 97 101 100 98 102 107 109 104 98 97 96 96 96 97 97 97 95 96 89 85 85 87
69 71 76 78 81 86 87 86 85 80 80 80 79 77 78 79 78 79 84 89 92 93 93 95 97 97 102 103 103 104 105 103 101 98 96 96 94 94 90 85 85 87 88 88
64 64 65 63 62 73 79 84 85 85 81 81 78 76 82 72 77 81 84 86 88 90 93 96 98 97 98 99 101 102 103 102 101 101 100 99 97 96 96 94 97 100 95 91
50 41 37 37 38 38 43 44 55 64 74 78 75 71 82 82 84 86 88 87 87 90 94 96 97 99 100 100 100 100 101 100 100 99 98 98 98 100 102 103 101 99 96 96
20 30 30 24 21 26 31 33 36 41 48 46 49 58 53 59 61 61 60 56 60 63 67 73 76 79 84 84 87 92 95 98 99 101 102 102 101 102 102 102 101 99 97 99
18 25 23 17 8 15 22 23 26 29 38 45 49 48 53 43 45 47 53 53 57 55 51 54 61 62 66 76 80 82 85 89 94 96 98 101 102 103 101 101 101 98 99 96
20 20 20 20 17 13 22 28 25 20 22 27 39 46 50 53 55 49 46 47 45 46 50 52 59 63 64 67 70 73 76 78 77 79 84 88 91 91 91 91 90 88 92 92
22 25 26 21 23 19 17 17 20 26 33 34 30 27 28 29 35 40 48 55 56 56 55 54 55 57 59 61 64 69 74 76 76 79 80 82 81 80 80 82 85 90 91 88
24 27 26 26 24 22 24 24 25 25 27 28 29 27 29 35 42 47 48 46 45 48 51 52 53 51 50 49 52 54 57 59 61 60 61 67 71 75 76 79 79 79 79 77
21 24 25 25 26 28 30 26 25 22 24 30 32 29 29 27 26 28 29 29 33 39 43 43 42 40 41 38 38 37 37 40 41 40 41 45 50 57 62 66 67 68 70 73
Wind_Direction
224 226 227 226 192 211 235 205 224 252 244 236 229 248 255 268 279 281 298 308 319 309 295 296 303 304 318 327 340 356 8 6 11 1 355 345 346 352 3 359 355 350 0 9
228 226 227 234 227 221 205 215 240 232 213 217 254 267 266 267 277 279 284 292 298 297 299 291 291 294 299 304 319 312 325 333 335 341 343 349 326 329 322 346 321 328 321 320
227 230 232 231 234 228 222 219 236 233 220 219 239 237 256 260 239 251 273 285 288 289 282 282 284 299 298 289 288 296 308 320 331 329 330 344 332 324 311 298 306 310 308 301
219 216 231 241 237 236 237 235 227 232 222 227 231 232 238 248 241 258 271 275 286 286 283 274 277 303 297 278 272 274 298 312 321 322 311 311 311 321 310 283 284 289 291 292
220 221 240 239 233 235 239 238 240 238 235 224 226 229 241 236 243 258 262 266 273 267 272 274 293 291 285 283 276 271 281 303 316 315 297 309 301 298 291 296 286 284 286 283
237 237 242 243 244 242 244 238 239 243 246 245 245 246 250 253 248 252 260 266 262 252 264 272 283 283 285 278 275 274 270 280 305 294 284 284 281 280 272 264 264 270 272 271
246 244 243 246 250 247 245 243 240 243 247 245 243 242 246 249 253 246 244 261 263 262 264 267 278 280 275 275 274 272 272 271 293 291 285 275 269 265 261 261 259 270 271 266
249 249 246 246 248 251 255 255 252 249 245 244 246 249 248 250 256 251 249 256 263 264 263 271 276 269 270 271 279 261 269 280 277 279 278 261 268 253 245 261 261 263 259 261
251 251 252 253 250 253 253 253 255 256 258 260 254 251 250 253 249 253 255 252 258 265 273 278 274 273 274 275 275 266 280 281 281 282 273 268 267 261 263 267 260 256 258 257
251 250 254 253 253 254 255 257 256 255 256 258 259 256 256 256 257 258 257 257 260 262 265 269 271 271 268 271 274 278 281 281 285 285 271 262 266 268 265 265 259 254 254 258
252 251 256 255 255 255 255 255 257 259 258 258 261 259 256 254 256 258 259 261 262 267 267 267 270 272 272 274 277 278 279 276 272 273 269 264 264 264 267 268 263 259 259 258
253 254 254 261 259 256 255 255 255 254 257 258 259 261 261 264 261 260 260 264 273 270 272 264 265 263 263 266 264 266 265 265 269 263 252 246 257 259 262 262 265 265 267 266
255 253 256 260 261 257 254 254 255 258 257 259 263 265 265 264 265 265 258 251 236 250 244 246 247 240 249 253 252 253 259 257 259 262 262 264 259 257 256 261 267 267 268 267
260 260 259 259 259 264 263 260 258 256 257 259 259 261 264 264 260 258 249 253 241 246 255 266 261 256 251 249 254 257 257 256 258 262 260 262 263 263 264 262 265 267 271 271
264 264 262 261 262 262 263 263 262 261 258 258 259 260 261 263 264 260 256 251 254 256 254 256 255 253 255 256 255 262 264 265 265 267 268 269 268 266 266 265 265 265 267 270
263 263 263 263 261 260 259 259 259 260 259 261 260 258 259 258 259 261 262 258 255 256 257 257 255 257 258 260 262 268 266 267 267 267 267 267 267 269 268 269 270 270 269 271
271 270 269 267 265 262 260 258 259 259 260 259 261 260 259 259 259 258 258 259 260 259 259 260 261 259 259 260 264 267 269 269 268 267 267 268 267 267 268 270 267 268 270 271
274 273 273 271 268 265 263 263 262 258 258 260 260 261 263 261 260 260 258 259 261 262 264 265 264 263 263 264 266 269 270 271 271 270 269 268 267 269 267 267 266 270 273 272
281 283 280 278 265 258 258 258 258 257 255 254 258 258 258 257 259 259 259 260 262 263 264 266 268 269 269 269 269 270 270 270 271 270 270 270 268 267 267 267 270 275 275 273
285 288 293 282 269 256 251 252 257 255 255 254 254 256 259 261 258 263 264 264 265 267 268 268 268 270 270 270 270 269 269 269 270 271 271 270 269 269 269 270 271 272 272 272
308 331 324 304 260 265 254 251 238 242 239 236 235 248 255 258 263 265 269 268 269 274 277 278 278 277 275 273 271 270 270 271 270 269 269 269 269 269 269 270 271 271 271 271
341 329 325 318 304 282 271 238 234 241 241 242 237 244 247 255 264 263 266 272 280 282 283 281 283 283 278 275 274 272 270 269 268 268 268 269 269 268 267 268 268 268 269 269
334 320 314 314 279 264 230 235 255 258 253 252 248 248 256 263 266 273 271 276 278 282 280 281 282 281 280 278 277 277 276 277 276 272 269 269 269 268 268 268 267 267 268 269
325 322 320 303 300 303 292 270 274 266 268 269 277 271 278 278 275 283 286 290 292 291 291 289 287 286 285 282 281 280 279 278 277 275 273 270 268 267 266 266 268 267 270 272
329 317 311 302 299 290 277 274 271 272 271 274 276 278 278 280 282 287 289 292 294 295 297 299 299 297 293 290 288 289 289 289 288 283 276 270 268 266 265 264 265 266 267 269
309 319 319 314 306 298 297 294 287 285 281 279 278 279 281 284 281 282 290 300 309 309 303 303 303 305 302 303 296 304 311 314 309 295 283 276 271 266 265 264 265 267 269 271
Height
11019 11021 11021 11024 11026 11027 11028 11029 11031 11032 11032 11030 11030 11032 11033 11033 11034 11034 11034 11033 11033 11033 11032 11032 11032 11032 11031 11030 11030 11029 11027 11026 11025 11024 11021 11017 11015 11014 11014 11015 11012 11011 11012 11011
11015 11017 11018 11018 11019 11023 11024 11026 11027 11028 11027 11026 11026 11029 11029 11028 11028 11029 11031 11029 11029 11031 11030 11028 11029 11029 11029 11029 11029 11029 11026 11025 11025 11025 11024 11020 11017 11015 11013 11013 11012 11011 11011 11011
11008 11010 11012 11013 11015 11018 11021 11022 11023 11024 11022 11021 11022 11023 11024 11023 11023 11023 11023 11024 11023 11024 11027 11025 11025 11023 11023 11024 11025 11024 11024 11022 11021 11021 11020 11019 11018 11016 11013 11011 11010 11011 11010 11008
11000 11002 11005 11004 11007 11010 11013 11019 11016 11018 11018 11016 11016 11016 11018 11017 11017 11018 11016 11019 11020 11019 11019 11018 11018 11017 11017 11018 11019 11019 11022 11021 11019 11016 11016 11016 11014 11013 11012 11010 11007 11007 11008 11006
10991 10993 10995 10995 10997 10999 11001 11008 11007 11009 11010 11005 11005 11010 11012 11013 11013 11013 11010 11014 11015 11016 11015 11013 11013 11011 11011 11011 11012 11015 11015 11017 11015 11011 11011 11012 11012 11009 11007 11006 11005 11004 11003 11001
10979 10983 10984 10985 10985 10989 10990 10996 10995 10995 10997 10991 11002 11007 11004 11008 11011 11009 11007 11004 11007 11010 11010 11006 11005 11003 11004 11002 11006 11008 11008 11008 11008 11007 11005 11005 11006 11004 11004 11001 10998 10999 10996 10995
10965 10970 10971 10971 10970 10974 10979 10980 10983 10986 10983 10978 10989 10992 10991 10996 10998 11002 10999 11001 11000 11001 11003 11002 10997 10991 10993 10996 10997 10995 10998 10997 10997 10996 10996 10995 10995 10996 10994 10993 10989 10989 10990 10987
10953 10954 10955 10957 10959 10958 10960 10959 10965 10966 10965 10966 10974 10980 10984 10988 10984 10983 10988 10993 10991 10989 10990 10989 10990 10982 10980 10979 10985 10988 10985 10986 10985 10986 10983 10983 10983 10983 10980 10981 10979 10978 10979 10978
10939 10941 10941 10941 10942 10945 10941 10947 10943 10949 10946 10945 10953 10961 10969 10969 10967 10963 10974 10979 10979 10977 10976 10976 10977 10976 10968 10966 10970 10972 10974 10974 10972 10971 10970 10968 10968 10967 10963 10963 10964 10964 10963 10964
10926 10931 10923 10923 10929 10929 10929 10928 10927 10929 10930 10930 10926 10940 10949 10953 10952 10953 10957 10964 10966 10969 10971 10968 10967 10965 10964 10959 10960 10959 10961 10958 10954 10954 10952 10953 10951 10949 10947 10946 10945 10948 10949 10949
10915 10916 10906 10911 10912 10913 10912 10911 10909 10908 10916 10913 10904 10907 10929 10937 10938 10940 10948 10949 10946 10946 10951 10955 10957 10956 10954 10949 10947 10945 10944 10944 10940 10939 10936 10935 10933 10930 10928 10926 10927 10931 10932 10932
10900 10903 10903 10894 10895 10893 10893 10891 10893 10895 10893 10892 10893 10886 10911 10914 10923 10929 10938 10938 10931 10922 10929 10932 10934 10936 10937 10936 10933 10933 10930 10928 10924 10920 10917 10914 10913 10910 10908 10908 10907 10909 10911 10912
10888 10890 10889 10884 10873 10871 10877 10878 10879 10879 10881 10880 10880 10876 10894 10902 10903 10911 10924 10923 10923 10904 10907 10910 10911 10910 10910 10909 10906 10905 10903 10902 10899 10899 10898 10896 10893 10891 10890 10889 10888 10888 10889 10890
10871 10873 10871 10868 10862 10850 10856 10858 10859 10862 10865 10870 10865 10865 10876 10883 10887 10892 10898 10895 10896 10887 10887 10889 10889 10890 10888 10886 10884 10881 10882 10880 10879 10878 10877 10874 10875 10874 10873 10872 10871 10869 10866 10868
10850 10850 10848 10846 10842 10841 10833 10831 10830 10844 10851 10847 10848 10854 10861 10864 10863 10868 10871 10871 10866 10864 10863 10863 10860 10864 10866 10866 10865 10862 10862 10862 10859 10857 10857 10855 10856 10854 10854 10852 10850 10848 10845 10845
10827 10823 10823 10820 10818 10814 10810 10805 10808 10823 10824 10824 10829 10836 10840 10842 10845 10841 10841 10842 10840 10837 10837 10837 10836 10836 10839 10837 10837 10835 10834 10833 10834 10833 10832 10832 10831 10829 10828 10826 10825 10827 10826 10824
10804 10805 10801 10798 10792 10790 10780 10780 10792 10804 10802 10808 10807 10813 10818 10818 10819 10823 10821 10813 10813 10812 10809 10811 10813 10814 10814 10814 10813 10809 10807 10806 10806 10806 10805 10803 10802 10802 10800 10799 10800 10801 10801 10798
10785 10783 10776 10771 10766 10758 10754 10760 10766 10780 10782 10784 10787 10791 10793 10793 10796 10796 10790 10786 10789 10791 10788 10785 10783 10784 10785 10784 10784 10781 10780 10778 10777 10776 10776 10775 10773 10772 10772 10772 10773 10773 10774 10774
10759 10756 10749 10742 10735 10733 10737 10736 10736 10745 10752 10761 10767 10771 10767 10773 10768 10769 10767 10767 10767 10768 10765 10762 10760 10758 10758 10757 10755 10753 10750 10749 10746 10745 10744 10743 10744 10744 10744 10745 10744 10745 10745 10745
10744 10735 10729 10721 10716 10712 10713 10718 10716 10719 10727 10736 10745 10744 10741 10747 10748 10747 10746 10747 10743 10743 10742 10741 10739 10735 10732 10728 10726 10724 10722 10719 10715 10714 10714 10713 10713 10712 10714 10715 10714 10715 10715 10713
10736 10725 10716 10711 10708 10706 10703 10704 10708 10708 10712 10723 10724 10725 10727 10726 10730 10731 10730 10727 10723 10721 10720 10716 10711 10704 10702 10698 10696 10693 10690 10687 10684 10682 10683 10683 10684 10684 10686 10685 10685 10686 10685 10684
10728 10723 10715 10709 10704 10700 10697 10697 10700 10704 10706 10712 10716 10716 10718 10718 10717 10717 10716 10715 10713 10711 10705 10701 10693 10688 10681 10677 10672 10668 10664 10660 10655 10652 10653 10653 10652 10654 10657 10659 10656 10658 10657 10660
10721 10717 10714 10712 10710 10701 10699 10701 10703 10705 10704 10704 10706 10706 10706 10706 10706 10706 10704 10701 10699 10695 10690 10686 10679 10672 10668 10661 10654 10645 10637 10630 10627 10626 10626 10624 10624 10624 10628 10630 10630 10633 10632 10636
10715 10710 10707 10707 10703 10700 10699 10699 10699 10698 10698 10699 10700 10699 10696 10695 10694 10690 10686 10682 10679 10673 10669 10666 10660 10653 10646 10639 10632 10623 10614 10606 10601 10596 10594 10594 10596 10595 10598 10602 10605 10609 10611 10614
10711 10706 10705 10701 10696 10694 10692 10694 10693 10693 10692 10692 10691 10690 10689 10688 10685 10680 10674 10670 10665 10658 10652 10645 10637 10630 10622 10616 10608 10602 10594 10585 10576 10570 10566 10564 10565 10567 10571 10577 10581 10586 10588 10591
10714 10709 10700 10693 10688 10684 10681 10682 10682 10682 10682 10679 10678 10681 10680 10679 10677 10673 10668 10662 10656 10648 10640 10632 10623 10615 10608 10603 10596 10589 10581 10571 10561 10554 10549 10546 10545 10545 10549 10553 10558 10562 10565 10568